Погода в Шеллефтео

Швеция     64°44′27″N   20°57′46″E
темп.,
°C
ветер,
м/с
пор.,
м/с
влажн.,
%
обл.,
%
осадки,
мм/ч
давл.,
гПа
погр.,
м
26 февраля, пт
пт2601:00+3з51487100 0.0 998424
04:00+2з5138659 0.0 996379
07:00+2зсз5138629 0.0 996367
10:00+2сз412920 0.0 999401
13:00+2сз514911 0.0 1003382
16:00+3сз5158022 0.0 1007451
19:00+1сз5157511 0.0 1012463
22:000сз411770 0.0 1015245
27 февраля, сб
сб2701:00−2зсз39810 0.0 1019166
04:00−2зсз310820 0.0 1019236
07:00−5зсз25870 0.0 102192
10:00−2зсз368727 0.0 1021257
13:000зюз279454 0.0 1020290
16:00+1юз310100100 0.1 1017333
19:00+3з61695100 0.2 1014540
22:00+3з6178328 0.0 1012747
28 февраля, вс
вс2801:00+3зсз5168314 0.0 1012564
04:00+2з412850 0.0 1012355
07:00+2з412870 0.0 1013321
10:00+3з5149731 0.0 1014352
13:00+3з41610064 0.0 1016457
16:00+3зсз41896100 0.0 1016576
19:00+3з31692100 0.0 1016541
22:00+3зюз41491100 0.0 1015415
1 марта, пн
пн101:00+3з61889100 0.0 1014751
04:00+3зюз51790100 0.0 1012750
07:00+2з4138783 0.0 1012418
10:00+2з414940 0.0 1012574
13:00+3з415920 0.0 1012620
16:00+2з415780 0.0 1012715
19:00+1зсз616720 0.0 1012822
22:00+1з516740 0.0 1013723
2 марта, вт
вт201:00+1зсз516740 0.0 1014844
04:00+1з515740 0.0 1014589
07:000з413760 0.0 1016375
10:00+2зсз412800 0.0 1019661
13:00+2зсз413880 0.0 1021623
16:00+1зсз3118214 0.0 1022371
19:00−1зсз310838 0.0 1022274
22:00−1зсз411830 0.0 1024240